Tracking 25701 objects as of 3-Jul-2022
HD Live streaming from Space Station
objects crossing your sky now

FENGYUN 1C DEB

Track FENGYUN 1C DEB now!
10-day predictions


NORAD ID: 32166
Int'l Code: 1999-025CTL
Perigee: 490.3 km
Apogee: 680.0 km
Inclination: 98.3 °
Period: 96.2 minutes
Semi major axis: 6956 km
RCS: 0.0014 m2 (small)
Launch date: May 10, 1999
Source: People's Republic of China (PRC)
Launch site: Taiyaun Space Center, China (TSC)

Note: This is SATELLITE DEBRIS
aabbcc
Your satellite tracking list
Your tracking list is empty




NASA's NSSDC Master Catalog

Two Line Element Set (TLE):
1 32166U 99025CTL 22183.52340167  .00008349  00000-0  61488-3 0  9991
2 32166  98.2890  27.8767 0136345  19.1252 341.5015 14.96409952807457
Source of the keplerian elements: AFSPC